This is the latest recevied weather packets stored in our database for station/object BX2AEA-13. If no packets are shown the sender has not sent any weather packets the latest 10 day(s).
| Time | Temp. | Humidity | Pressure | Rain* | Wind** | Luminosity | Snow |
|---|---|---|---|---|---|---|---|
| 1777535917 | 28.89° C | 54% | 1007.9 hPa | 0 mm | - | - | - |
| 1777535570 | 28.89° C | 53% | 1007.9 hPa | 0 mm | - | - | - |
| 1777535223 | 29.44° C | 54% | 1008 hPa | 0 mm | - | - | - |
| 1777534876 | 29.44° C | 53% | 1007.9 hPa | 0 mm | - | - | - |
| 1777534529 | 29.44° C | 54% | 1007.9 hPa | 0 mm | - | - | - |
| 1777534182 | 29.44° C | 54% | 1007.8 hPa | 0 mm | - | - | - |
| 1777533835 | 29.44° C | 54% | 1007.9 hPa | 0 mm | - | - | - |
| 1777533488 | 29.44° C | 54% | 1007.9 hPa | 0.25 mm | - | - | - |
| 1777533141 | 29.44° C | 54% | 1008 hPa | 0.25 mm | - | - | - |
| 1777532794 | 29.44° C | 53% | 1007.8 hPa | 0.25 mm | - | - | - |
| 1777532447 | 29.44° C | 53% | 1007.9 hPa | 0.25 mm | - | - | - |
| 1777532100 | 29.44° C | 53% | 1008 hPa | 0.25 mm | - | - | - |
| 1777531753 | 29.44° C | 53% | 1008 hPa | 0.25 mm | - | - | - |
| 1777531406 | 29.44° C | 53% | 1008.1 hPa | 0.25 mm | - | - | - |
| 1777531059 | 29.44° C | 53% | 1008.1 hPa | 1.27 mm | - | - | - |
| 1777530712 | 29.44° C | 53% | 1008.1 hPa | 1.52 mm | - | - | - |
| 1777530365 | 29.44° C | 53% | 1008.3 hPa | 3.81 mm | - | - | - |
| 1777530018 | 29.44° C | 53% | 1008.5 hPa | 4.57 mm | - | - | - |
| 1777529670 | 29.44° C | 53% | 1008.5 hPa | 4.06 mm | - | - | - |
| 1777529324 | 29.44° C | 53% | 1008.4 hPa | 4.06 mm | - | - | - |
| 1777528976 | 29.44° C | 53% | 1008.5 hPa | 4.06 mm | - | - | - |
| 1777528629 | 29.44° C | 52% | 1008.7 hPa | 4.06 mm | - | - | - |
| 1777528283 | 29.44° C | 52% | 1008.6 hPa | 4.57 mm | - | - | - |
| 1777527936 | 29.44° C | 51% | 1008.6 hPa | 4.57 mm | - | - | - |
| 1777527588 | 29.44° C | 51% | 1008.6 hPa | 3.81 mm | - | - | - |
* Rain latest hour (hover to see other rain measurements)
** Current wind speed in m/s (hover to see current wind gust speed)